SCP
0 0 0 0 0 0 0 0 0 0 0 0 0 0 0 0 0 0 0 0 0 0 0 0 0 0 0 0 0 0 0 0 0 0 0 0 0 0 0 0 0 0 0
0 0 0 0 0 0 0 0 0 0 0 0 0 0 0 0 0 0 0 0 0 0 0 0 0 0 0 0 0 0 0 0 0 0 0 0 0 0 0 0 0 0 0
0 0 0 0 0 0 0 0 0 0 0 0 0 0 0 0 0 0 0 0 0 0 0 0 0 0 0 0 0 0 0 0 0 0 0 0 0 0 0 0 0 0 0
0 0 0 0 0 0 0 0 0 0 0 0 0 0 0 0 0 0 0 0 0 0 0 0 0 0 0 0 0 0 0 0 0 0 0 0 0 0 0 0 0 0 0
0 0 0 0 0 0 0 0 0 0 0 0 0 0 0 0 0 0 0 0 0 0 0 0 0 0 0 0 0 0 0 0 0 0 0 0 0 0 0 0 0 0 0
0 0 0 0 0 0 0 0 0 0 0 0 0 0 0 0 0 0 0 0 0 0 0 0 0 0 0 0 0 0 0 0 0 0 0 0 0 0 0 0 0 0 0
0 0 0 0 0 0 0 0 0 0 0 0 0 0 0 0 0 0 0 0 0 0 0 0 0 0 0 0 0 0 0 0 0 0 0 0 0 0 0 0 0 0 0
0 0 0 0 0 0 0 0 0 0 0 0 0 0 0 0 0 0 0 0 0 0 0 0 0 0 0 0 0 0 0 0 0 0 0 0 0 0 0 0 0 0 0
0 0 0 0 0 0 0 0 0 0 0 0 0 0 0 0 0 0 0 0 0 0 0 0 0 0 0 0 0 0 0 0 0 0 0 0 0 0 0 0 0 0 0
0 0 0 0 0 0 0 0 0 0 0 0 0 0 0 0 0 0 0 0 0 0 0 0 0 0 0 0 0 0 0 0 0 0 0 0 0 0 0 0 0 0 0
0 0 0 0 0 0 0 0 0 0 0 0 0 0 0 0 0 0 0 0 0 0 0 0 0 0 0 0 0 0 0 0 0 0 0 0 0 0 0 0 0 0 0
0 0 0 0 0 0 0 0 0 0 0 0 0 0 0 0 0 0 0 0 0 0 0 0 0 0 0 0 0 0 0 0 0 0 0 0 0 0 0 0 0 0 0
0 0 0 0 0 0 0 0 0 0 0 0 0 0 0 0 0 0 0 0 0 0 0 0 0 0 0 0 0 0 0 0 0 0 0 0 0 0 0 0 0 0 0
0 0 0 0 0 0 0 0 0 0 0 0 0 0 0 0 0 0 0 0 0 0 0 0 0 0 0 0 0 0 0 0 0 0 0 0 0 0 0 0 0 0 0
0 0 0 0 0 0 0 0 0 0 0 0 0 0 0 0 0 0 0 0 0 0 0 0 0 0 0 0 0 0 0 0 0 0 0 0 0 0 0 0 0 0 0
0 0 0 0 0 0 0 0 0 0 0 0 0 0 0 0 0 0 0 0 0 0 0 0 0 0 0 0 0 0 0 0 0 0 0 0 0 0 0 0 0 0 0
0 0 0 0 0 0 0 0 0 0 0 0 0 0 0 0 0 0 0 0 0 0 0 0 0 0 0 0 0 0 0 0 0 0 0 0 0 0 0 0 0 0 0
0 0 0 0 0 0 0 0 0 0 0 0 0 0 0 0 0 0 0 0 0 0 0 0 0 0 0 0 0 0 0 0 0 0 0 0 0 0 0 0 0 0 0
0 0 0 0 0 0 0 0 0 0 0 0 0 0 0 0 0 0 0 0 0 0 0 0 0 0 0 0 0 0 0 0 0 0 0 0 0 0 0 0 0 0 0
0 0 0 0 0 0 0 0 0 0 0 0 0 0 0 0 0 0 0 0 0 0 0 0 0 0 0 0 0 0 0 0 0 0 0 0 0 0 0 0 0 0 0
0 0 0 0 0 0 0 0 0 0 0 0 0 0 0 0 0 0 0 0 0 0 0 0 0 0 0 0 0 0 0 0 0 0 0 0 0 0 0 0 0 0 0
0 0 0 0 0 0 0 0 -0 -0 -0 -0 -0 0 0 0 0 0 0 0 0 0 0 0 0 0 0 0 0 0 0 0 0 0 0 0 0 0 0 0 0 0 0
-0 -0 -0 -0 -0 -0 -0 -0 -0 -0 -0 -0 0 0 0 0 0 0 0 0 0 0 0 0 0 0 0 0 0 0 0 0 0 0 0 0 0 0 0 0 0 0 0
0 0 0 0 -0 -0 -0 -0 -0 -0 0 0 0 0 0 0 0 0 0 0 0 0 0 0 0 0 0 0 0 0 0 0 0 0 0 0 0 0 0 0 0 0 0
0 0 -0 -0 -0 -0 -0 0 0 0 0 0 0 0 0 0 0 0 0 0 0 0 0 0 0 0 0 0 0 0 0 0 0 0 0 0 0 0 0 0 0 0 0
0 0 0 0 0 0 0 0 0 0 0 0 0 0 0 0 0 0 0 0 0 0 0 0 0 0 0 0 0 0 0 0 0 0 0 0 0 0 0 0 0 0 0
Wind_Speed_500mb
13 16 18 20 23 25 22 24 27 29 29 30 28 27 23 22 20 18 18 17 14 14 15 18 14 10 9 9 11 11 11 14 16 16 17 19 21 25 27 29 30 32 36
11 12 14 15 16 17 19 18 21 21 24 25 24 20 21 19 15 15 15 13 13 13 11 7 4 3 3 1 3 5 6 9 12 14 15 16 20 23 25 27 29 31 33
8 6 8 8 5 5 7 9 12 13 15 15 14 15 17 14 15 11 11 9 6 4 4 3 3 4 3 4 6 8 9 10 12 12 13 16 19 21 24 26 28 30 34
10 9 7 6 7 8 6 8 9 13 14 15 15 13 11 13 13 11 8 6 5 6 6 5 4 4 5 7 8 9 10 12 13 14 14 15 18 19 22 25 27 31 35
10 10 11 11 10 9 11 9 11 13 13 13 13 14 13 12 12 11 11 10 9 7 6 4 5 6 7 10 10 12 12 12 12 13 13 15 17 21 25 29 32 34 38
12 12 12 13 14 13 11 12 14 13 13 13 13 14 16 18 19 15 11 8 8 7 6 5 5 8 10 11 11 12 12 12 13 14 14 17 20 23 27 30 33 38 37
11 12 13 13 14 15 16 15 14 15 16 17 19 19 18 16 14 12 10 7 7 4 4 5 6 7 9 11 13 16 17 18 16 14 16 19 22 25 28 30 30 32 37
12 12 12 14 15 15 16 18 19 20 20 18 17 16 15 15 14 11 8 5 2 1 4 7 9 12 14 16 16 17 17 16 16 18 20 21 22 24 26 29 31 32 36
13 13 13 14 14 15 17 17 17 16 16 15 16 16 14 11 8 6 3 2 5 7 9 11 13 14 15 16 17 18 19 19 18 20 21 21 21 22 25 28 32 38 41
15 16 15 14 15 15 15 15 15 16 16 15 13 11 7 5 2 2 4 6 9 11 14 16 17 18 18 16 18 20 21 22 22 21 22 22 22 23 25 28 32 36 41
17 19 20 19 17 16 15 16 17 17 16 14 11 8 6 6 4 6 10 12 14 16 18 20 20 20 21 19 21 24 23 23 24 23 21 21 22 23 25 27 31 35 39
19 18 19 20 23 23 22 21 20 18 16 14 13 10 8 9 9 11 13 16 19 20 21 23 24 25 25 26 26 27 27 26 25 22 22 23 24 25 27 30 33 37 42
21 21 22 22 23 24 24 25 22 21 20 17 15 14 14 14 16 17 19 22 24 25 26 27 28 28 28 28 28 28 28 26 24 24 25 25 26 29 32 35 38 42 45
21 21 21 21 21 22 24 25 25 24 21 20 19 19 20 21 21 24 26 27 28 29 29 29 30 31 31 31 29 29 27 26 25 27 27 28 31 34 38 42 45 49 54
28 26 25 25 25 28 32 32 31 29 28 25 24 25 26 27 28 30 32 33 34 34 36 34 35 35 34 32 30 28 28 27 28 29 30 32 35 39 43 48 51 56 60
31 31 29 31 32 35 36 36 35 33 32 32 32 32 33 34 35 37 39 39 40 41 44 41 39 39 35 33 32 31 30 31 32 33 35 37 41 44 48 52 58 63 68
40 41 39 39 38 37 38 38 37 37 38 38 38 38 40 41 41 42 43 43 45 44 47 47 42 38 37 36 36 35 34 34 36 37 40 42 46 49 53 58 62 67 73
42 42 42 39 37 37 37 39 40 43 44 43 44 45 47 47 46 44 45 47 48 48 50 49 47 44 41 40 39 38 39 40 41 43 45 48 52 55 60 63 66 71 76
43 42 39 38 38 38 40 42 45 48 49 50 52 50 49 49 50 50 49 52 51 49 50 49 47 46 46 45 43 42 44 46 49 51 53 56 58 61 65 67 71 73 77
40 40 40 42 42 44 45 47 50 52 54 54 54 52 53 52 54 52 53 53 54 54 52 53 52 49 49 47 47 48 50 52 54 56 57 60 61 66 70 71 73 77 78
45 46 44 47 48 47 50 52 53 56 58 58 58 56 55 57 57 57 55 54 53 53 53 53 55 54 53 52 52 53 55 58 58 60 62 64 66 71 71 72 73 75 78
50 51 51 53 54 56 57 58 60 61 63 63 61 60 57 61 58 56 55 53 52 52 52 54 56 56 55 55 56 58 60 62 62 64 66 68 70 71 71 70 71 71 72
55 57 59 59 60 61 62 63 64 65 65 64 62 61 59 58 58 56 54 51 51 51 51 53 56 58 56 57 59 61 63 64 64 66 69 69 70 71 69 68 68 67 67
53 56 59 61 63 64 64 64 64 65 65 64 62 60 58 57 55 54 52 50 50 50 51 53 56 58 59 60 61 62 63 62 63 65 66 67 68 68 66 64 62 60 62
55 57 58 59 61 62 62 62 63 62 62 59 58 56 55 54 54 52 50 49 49 51 53 55 57 59 61 63 64 64 64 65 67 66 65 65 66 64 60 58 54 56 53
49 51 53 55 56 57 58 57 57 56 56 54 54 53 52 52 51 50 49 50 52 55 56 58 59 59 60 61 61 61 63 65 66 65 63 63 61 58 53 51 50 49 49
Wind_Direction_500mb
217 226 231 234 232 229 229 235 236 240 243 241 239 250 256 252 243 245 249 243 232 224 235 237 227 225 253 275 275 278 285 285 284 286 293 302 302 306 310 313 317 319 320
201 217 226 233 237 234 236 232 237 246 246 240 241 230 245 242 236 220 224 230 211 200 190 201 225 243 267 309 355 337 316 308 308 313 310 305 303 310 315 319 322 322 323
195 194 215 213 215 233 202 209 218 216 227 226 220 233 221 221 220 198 189 182 189 188 178 172 122 107 47 4 355 353 348 331 319 311 308 306 306 312 316 320 321 322 327
160 159 160 160 155 139 160 179 193 204 203 198 192 183 165 162 155 152 149 156 148 130 120 106 85 55 31 17 2 348 336 329 322 317 314 311 315 318 318 321 322 327 328
136 143 135 140 143 151 170 171 164 153 150 149 147 145 145 140 130 121 121 122 118 111 102 87 63 22 2 350 347 339 331 330 329 330 327 318 318 321 326 330 333 332 330
139 138 138 142 144 152 160 154 152 147 146 144 145 136 137 137 130 127 126 129 125 112 95 67 25 3 349 342 340 332 325 337 337 329 320 315 321 327 329 329 332 335 337
145 149 152 151 152 148 146 142 141 138 136 139 139 139 141 137 130 121 115 102 82 63 32 2 344 331 332 331 339 344 339 333 324 323 323 319 322 325 326 325 328 330 330
157 158 152 148 143 144 139 137 138 140 140 140 140 137 132 129 127 121 120 123 125 310 316 326 332 338 337 335 332 330 329 328 329 325 318 316 318 319 319 323 328 332 333
168 167 163 157 155 152 151 146 146 144 141 145 143 141 138 137 127 116 102 15 335 330 324 322 321 328 325 325 327 327 322 321 318 314 313 311 313 318 322 327 333 333 335
173 169 169 166 166 171 169 167 162 158 153 149 148 151 150 163 164 338 329 309 314 317 315 318 324 323 319 315 313 314 313 317 316 311 310 312 320 324 326 329 331 333 336
191 184 180 181 190 192 187 185 180 175 172 172 183 187 196 222 261 313 320 321 317 314 312 310 307 303 302 306 311 312 310 305 301 302 308 314 317 320 324 326 328 330 331
212 212 208 199 195 193 194 196 195 196 201 206 213 221 245 271 297 306 311 310 304 302 300 299 300 301 300 300 301 300 300 299 299 303 308 310 315 319 320 323 326 327 328
226 226 220 211 209 209 207 205 211 217 221 228 239 253 268 283 294 299 303 303 302 299 295 294 291 288 290 291 293 297 297 296 299 305 305 307 312 315 318 321 322 320 320
225 226 225 226 230 233 232 234 233 233 240 249 258 269 277 284 293 296 296 293 291 290 290 288 285 285 288 290 296 297 297 298 299 297 299 304 309 312 314 316 317 317 318
236 229 233 241 243 245 242 241 240 243 248 254 262 269 278 281 283 286 290 289 289 289 287 283 283 285 287 291 294 294 295 293 290 292 297 301 306 309 311 313 316 317 317
238 244 254 266 265 255 246 243 244 249 255 261 268 273 276 280 284 289 292 292 290 285 282 280 280 280 283 289 294 295 292 289 291 293 297 301 304 307 309 312 314 315 316
250 257 263 262 262 255 249 249 252 255 261 267 271 275 278 281 285 287 286 285 282 276 275 278 279 278 282 285 288 288 288 288 289 291 295 299 302 305 307 309 312 313 313
244 248 252 254 250 248 248 251 255 259 264 268 272 275 278 280 281 282 281 279 275 274 274 276 275 276 277 279 281 284 285 286 288 291 294 298 301 304 305 307 309 310 312
246 248 249 249 247 249 251 255 259 263 268 270 273 274 277 280 280 280 280 277 279 277 275 274 271 271 273 277 280 281 284 287 290 293 296 299 301 303 304 306 308 309 310
240 241 242 246 248 251 255 259 263 267 269 271 273 278 279 279 279 281 279 277 276 276 276 276 277 274 275 277 279 281 283 286 290 293 295 296 299 301 303 306 308 308 310
244 245 247 250 253 257 260 264 269 271 273 275 278 279 280 278 278 279 279 277 276 275 275 274 273 272 273 276 279 281 283 286 290 292 294 296 298 299 301 304 306 307 309
252 252 253 255 258 261 265 269 272 274 275 277 279 279 279 279 279 279 279 278 277 275 273 273 272 272 274 276 279 281 283 286 289 292 293 294 296 297 300 302 304 306 308
249 250 253 256 261 265 268 271 273 275 276 278 279 278 278 277 278 279 278 277 274 274 273 272 272 272 275 277 278 280 283 286 288 289 291 293 295 297 299 301 303 305 307
256 257 259 261 263 266 269 272 274 275 277 278 278 278 277 277 276 277 278 278 277 275 274 274 274 276 277 278 279 282 283 285 286 287 289 291 292 294 296 298 299 303 306
256 258 261 264 267 270 271 273 274 276 276 275 275 276 278 278 278 279 279 278 276 276 277 277 277 277 277 279 281 284 286 287 287 287 289 290 291 293 295 296 298 303 304
260 262 264 266 268 270 272 273 274 275 276 276 276 276 276 277 278 279 278 278 279 279 279 280 280 280 280 279 281 282 282 283 284 287 288 289 290 292 293 294 298 300 303
Wind_Speed_850mb
13 16 18 20 23 25 22 24 27 29 29 30 28 27 23 22 20 18 18 17 14 14 15 18 14 10 9 9 11 11 11 14 16 16 17 19 21 25 27 29 30 32 36
11 12 14 15 16 17 19 18 21 21 24 25 24 20 21 19 15 15 15 13 13 13 11 7 4 3 3 1 3 5 6 9 12 14 15 16 20 23 25 27 29 31 33
8 6 8 8 5 5 7 9 12 13 15 15 14 15 17 14 15 11 11 9 6 4 4 3 3 4 3 4 6 8 9 10 12 12 13 16 19 21 24 26 28 30 34
10 9 7 6 7 8 6 8 9 13 14 15 15 13 11 13 13 11 8 6 5 6 6 5 4 4 5 7 8 9 10 12 13 14 14 15 18 19 22 25 27 31 35
10 10 11 11 10 9 11 9 11 13 13 13 13 14 13 12 12 11 11 10 9 7 6 4 5 6 7 10 10 12 12 12 12 13 13 15 17 21 25 29 32 34 38
12 12 12 13 14 13 11 12 14 13 13 13 13 14 16 18 19 15 11 8 8 7 6 5 5 8 10 11 11 12 12 12 13 14 14 17 20 23 27 30 33 38 37
11 12 13 13 14 15 16 15 14 15 16 17 19 19 18 16 14 12 10 7 7 4 4 5 6 7 9 11 13 16 17 18 16 14 16 19 22 25 28 30 30 32 37
12 12 12 14 15 15 16 18 19 20 20 18 17 16 15 15 14 11 8 5 2 1 4 7 9 12 14 16 16 17 17 16 16 18 20 21 22 24 26 29 31 32 36
13 13 13 14 14 15 17 17 17 16 16 15 16 16 14 11 8 6 3 2 5 7 9 11 13 14 15 16 17 18 19 19 18 20 21 21 21 22 25 28 32 38 41
15 16 15 14 15 15 15 15 15 16 16 15 13 11 7 5 2 2 4 6 9 11 14 16 17 18 18 16 18 20 21 22 22 21 22 22 22 23 25 28 32 36 41
17 19 20 19 17 16 15 16 17 17 16 14 11 8 6 6 4 6 10 12 14 16 18 20 20 20 21 19 21 24 23 23 24 23 21 21 22 23 25 27 31 35 39
19 18 19 20 23 23 22 21 20 18 16 14 13 10 8 9 9 11 13 16 19 20 21 23 24 25 25 26 26 27 27 26 25 22 22 23 24 25 27 30 33 37 42
21 21 22 22 23 24 24 25 22 21 20 17 15 14 14 14 16 17 19 22 24 25 26 27 28 28 28 28 28 28 28 26 24 24 25 25 26 29 32 35 38 42 45
21 21 21 21 21 22 24 25 25 24 21 20 19 19 20 21 21 24 26 27 28 29 29 29 30 31 31 31 29 29 27 26 25 27 27 28 31 34 38 42 45 49 54
28 26 25 25 25 28 32 32 31 29 28 25 24 25 26 27 28 30 32 33 34 34 36 34 35 35 34 32 30 28 28 27 28 29 30 32 35 39 43 48 51 56 60
31 31 29 31 32 35 36 36 35 33 32 32 32 32 33 34 35 37 39 39 40 41 44 41 39 39 35 33 32 31 30 31 32 33 35 37 41 44 48 52 58 63 68
40 41 39 39 38 37 38 38 37 37 38 38 38 38 40 41 41 42 43 43 45 44 47 47 42 38 37 36 36 35 34 34 36 37 40 42 46 49 53 58 62 67 73
42 42 42 39 37 37 37 39 40 43 44 43 44 45 47 47 46 44 45 47 48 48 50 49 47 44 41 40 39 38 39 40 41 43 45 48 52 55 60 63 66 71 76
43 42 39 38 38 38 40 42 45 48 49 50 52 50 49 49 50 50 49 52 51 49 50 49 47 46 46 45 43 42 44 46 49 51 53 56 58 61 65 67 71 73 77
40 40 40 42 42 44 45 47 50 52 54 54 54 52 53 52 54 52 53 53 54 54 52 53 52 49 49 47 47 48 50 52 54 56 57 60 61 66 70 71 73 77 78
45 46 44 47 48 47 50 52 53 56 58 58 58 56 55 57 57 57 55 54 53 53 53 53 55 54 53 52 52 53 55 58 58 60 62 64 66 71 71 72 73 75 78
50 51 51 53 54 56 57 58 60 61 63 63 61 60 57 61 58 56 55 53 52 52 52 54 56 56 55 55 56 58 60 62 62 64 66 68 70 71 71 70 71 71 72
55 57 59 59 60 61 62 63 64 65 65 64 62 61 59 58 58 56 54 51 51 51 51 53 56 58 56 57 59 61 63 64 64 66 69 69 70 71 69 68 68 67 67
53 56 59 61 63 64 64 64 64 65 65 64 62 60 58 57 55 54 52 50 50 50 51 53 56 58 59 60 61 62 63 62 63 65 66 67 68 68 66 64 62 60 62
55 57 58 59 61 62 62 62 63 62 62 59 58 56 55 54 54 52 50 49 49 51 53 55 57 59 61 63 64 64 64 65 67 66 65 65 66 64 60 58 54 56 53
49 51 53 55 56 57 58 57 57 56 56 54 54 53 52 52 51 50 49 50 52 55 56 58 59 59 60 61 61 61 63 65 66 65 63 63 61 58 53 51 50 49 49
Wind_Direction_850mb
217 226 231 234 232 229 229 235 236 240 243 241 239 250 256 252 243 245 249 243 232 224 235 237 227 225 253 275 275 278 285 285 284 286 293 302 302 306 310 313 317 319 320
201 217 226 233 237 234 236 232 237 246 246 240 241 230 245 242 236 220 224 230 211 200 190 201 225 243 267 309 355 337 316 308 308 313 310 305 303 310 315 319 322 322 323
195 194 215 213 215 233 202 209 218 216 227 226 220 233 221 221 220 198 189 182 189 188 178 172 122 107 47 4 355 353 348 331 319 311 308 306 306 312 316 320 321 322 327
160 159 160 160 155 139 160 179 193 204 203 198 192 183 165 162 155 152 149 156 148 130 120 106 85 55 31 17 2 348 336 329 322 317 314 311 315 318 318 321 322 327 328
136 143 135 140 143 151 170 171 164 153 150 149 147 145 145 140 130 121 121 122 118 111 102 87 63 22 2 350 347 339 331 330 329 330 327 318 318 321 326 330 333 332 330
139 138 138 142 144 152 160 154 152 147 146 144 145 136 137 137 130 127 126 129 125 112 95 67 25 3 349 342 340 332 325 337 337 329 320 315 321 327 329 329 332 335 337
145 149 152 151 152 148 146 142 141 138 136 139 139 139 141 137 130 121 115 102 82 63 32 2 344 331 332 331 339 344 339 333 324 323 323 319 322 325 326 325 328 330 330
157 158 152 148 143 144 139 137 138 140 140 140 140 137 132 129 127 121 120 123 125 310 316 326 332 338 337 335 332 330 329 328 329 325 318 316 318 319 319 323 328 332 333
168 167 163 157 155 152 151 146 146 144 141 145 143 141 138 137 127 116 102 15 335 330 324 322 321 328 325 325 327 327 322 321 318 314 313 311 313 318 322 327 333 333 335
173 169 169 166 166 171 169 167 162 158 153 149 148 151 150 163 164 338 329 309 314 317 315 318 324 323 319 315 313 314 313 317 316 311 310 312 320 324 326 329 331 333 336
191 184 180 181 190 192 187 185 180 175 172 172 183 187 196 222 261 313 320 321 317 314 312 310 307 303 302 306 311 312 310 305 301 302 308 314 317 320 324 326 328 330 331
212 212 208 199 195 193 194 196 195 196 201 206 213 221 245 271 297 306 311 310 304 302 300 299 300 301 300 300 301 300 300 299 299 303 308 310 315 319 320 323 326 327 328
226 226 220 211 209 209 207 205 211 217 221 228 239 253 268 283 294 299 303 303 302 299 295 294 291 288 290 291 293 297 297 296 299 305 305 307 312 315 318 321 322 320 320
225 226 225 226 230 233 232 234 233 233 240 249 258 269 277 284 293 296 296 293 291 290 290 288 285 285 288 290 296 297 297 298 299 297 299 304 309 312 314 316 317 317 318
236 229 233 241 243 245 242 241 240 243 248 254 262 269 278 281 283 286 290 289 289 289 287 283 283 285 287 291 294 294 295 293 290 292 297 301 306 309 311 313 316 317 317
238 244 254 266 265 255 246 243 244 249 255 261 268 273 276 280 284 289 292 292 290 285 282 280 280 280 283 289 294 295 292 289 291 293 297 301 304 307 309 312 314 315 316
250 257 263 262 262 255 249 249 252 255 261 267 271 275 278 281 285 287 286 285 282 276 275 278 279 278 282 285 288 288 288 288 289 291 295 299 302 305 307 309 312 313 313
244 248 252 254 250 248 248 251 255 259 264 268 272 275 278 280 281 282 281 279 275 274 274 276 275 276 277 279 281 284 285 286 288 291 294 298 301 304 305 307 309 310 312
246 248 249 249 247 249 251 255 259 263 268 270 273 274 277 280 280 280 280 277 279 277 275 274 271 271 273 277 280 281 284 287 290 293 296 299 301 303 304 306 308 309 310
240 241 242 246 248 251 255 259 263 267 269 271 273 278 279 279 279 281 279 277 276 276 276 276 277 274 275 277 279 281 283 286 290 293 295 296 299 301 303 306 308 308 310
244 245 247 250 253 257 260 264 269 271 273 275 278 279 280 278 278 279 279 277 276 275 275 274 273 272 273 276 279 281 283 286 290 292 294 296 298 299 301 304 306 307 309
252 252 253 255 258 261 265 269 272 274 275 277 279 279 279 279 279 279 279 278 277 275 273 273 272 272 274 276 279 281 283 286 289 292 293 294 296 297 300 302 304 306 308
249 250 253 256 261 265 268 271 273 275 276 278 279 278 278 277 278 279 278 277 274 274 273 272 272 272 275 277 278 280 283 286 288 289 291 293 295 297 299 301 303 305 307
256 257 259 261 263 266 269 272 274 275 277 278 278 278 277 277 276 277 278 278 277 275 274 274 274 276 277 278 279 282 283 285 286 287 289 291 292 294 296 298 299 303 306
256 258 261 264 267 270 271 273 274 276 276 275 275 276 278 278 278 279 279 278 276 276 277 277 277 277 277 279 281 284 286 287 287 287 289 290 291 293 295 296 298 303 304
260 262 264 266 268 270 272 273 274 275 276 276 276 276 276 277 278 279 278 278 279 279 279 280 280 280 280 279 281 282 282 283 284 287 288 289 290 292 293 294 298 300 303